Tracking 35280 objects as of 6-Sep-2026
HD Live streaming from Space Station
objects crossing your sky now

COSMOS 1823

Track COSMOS 1823 now!
10-day predictions
COSMOS 1823 is classified as:


NORAD ID: 17535
Int'l Code: 1987-020A
Launch date: February 20, 1987
Source: Commonwealth of Independent States (former USSR) (CIS)
Launch site: PLESETSK MISSILE AND SPACE COMPLEX (PKMTR)
Your satellite tracking list
Your tracking list is empty




NASA's NSSDC Master Catalog

Two Line Element Set (TLE):
1 17535U 87020A   26249.57924088  .00000002  00000-0  14271-3 0  9994
2 17535  73.6011 293.7158 0027487 131.1621 344.7827 12.41381240791962
Source of the keplerian elements: AFSPC